World > North America > United States > Ohio > Rutland  

Rutland, OH Hourly Weather Updates

Feedback E-mail the Weather

Quick Clicks

Rutland, OH Weather Maps

°F °C°F °C
Rutland Weather Map
UTC Time: 6/13/2024, 06:38
Your Time:

Rutland, OH Regional Weather

Expires:202406130700;;926827
ASUS41 KCLE 130612
RWRCLE
OHIO REGIONAL WEATHER ROUNDUP
NATIONAL WEATHER SERVICE WILMINGTON, OH
200 AM EDT THU JUN 13 2024

NOTE: "FAIR" INDICATES FEW OR NO CLOUDS BELOW 12,000 FEET WITH NO
SIGNIFICANT WEATHER AND/OR OBSTRUCTIONS TO VISIBILITY.


OHZ036-037-039>041-045>050-054>059-063>069-073>076-082>088-130700-
  CENTRAL AND SOUTHEAST OHIO
  
CITY           SKY/WX    TMP DP  RH WIND       PRES   REMARKS
COLUMBUS       FAIR      64  54  69 CALM      29.99R                  
OSU AIRPORT    FAIR      69  53  56 S6        29.98S                  
BOLTON FIELD   FAIR      62  54  74 S6        30.00S                  
RICKENBACK AFB FAIR      64  55  72 CALM      29.99R                  
NEWARK         FAIR      58  54  86 CALM      29.99S                  
MARION         FAIR      64  53  67 S6        29.98R                  
LANCASTER      FAIR      57  56  96 CALM      30.00S                  
ZANESVILLE     FAIR      58  55  90 CALM      30.00S                  
NEW PHILLY     FAIR      59  56  89 SE3       30.00S                  
$$
  

SKY/WX - Weather  TMP - Temperature  DP - Dew Point  RH - Humidity
WIND - Wind Direction/Speed PRES - Barometric Pressure VSB - Visibility
WCI - Wind Chill Index E13G22 Wind - East Wind 13 mph/Gusts of 22 mph

Trending Headlines

Trending Entertainment Headlines

Rutland Radar Loop

Use the map search tool if you want to place a location marker on the radar map...

Rutland Quick Facts

National Two Day Weather Forecast


E-mail the Rutland Weather Forecast

Voice your opinion or tell us about page issues...